Wind_Speed
9 10 10 11 11 11 11 14 15 14 11 12 13 16 16 10 7 13 14 15 15 15 14 14 14 14 15 13 13 13 13 13 14 14 15 15 16 17 18 19 20 21 21 21
12 12 12 12 11 10 10 11 13 13 12 11 12 12 12 9 7 9 10 9 10 12 12 13 13 13 12 12 12 11 11 13 14 14 15 15 16 17 17 19 19 20 20 20
10 12 13 12 11 11 12 11 10 11 12 11 11 11 12 11 8 6 6 6 7 8 8 8 9 9 9 10 9 10 10 11 12 14 15 15 17 18 18 19 19 19 20 20
10 10 14 12 11 12 12 11 9 8 10 11 12 13 11 11 7 5 3 3 4 5 4 5 6 6 7 8 8 8 10 11 13 14 15 17 17 18 19 19 19 20 20 20
10 12 13 13 13 12 10 8 6 7 10 10 9 12 12 12 7 4 2 0 1 2 2 3 3 4 5 6 7 9 10 12 13 15 16 18 19 19 20 20 20 21 21 21
10 11 11 12 12 10 8 8 9 10 10 6 9 11 12 13 9 5 4 2 1 2 2 3 4 5 6 7 9 10 11 13 15 16 18 19 20 20 21 21 21 22 22 22
15 13 12 10 10 10 9 9 14 16 15 10 10 9 12 13 11 8 5 4 2 2 2 3 5 6 8 10 11 12 13 14 16 18 19 19 20 20 21 22 22 23 23 23
16 19 14 9 10 12 9 8 11 13 14 11 7 9 12 11 11 8 6 4 4 4 4 5 7 9 10 12 13 14 15 16 17 18 19 20 20 20 21 22 23 23 24 25
15 15 14 12 11 11 9 7 7 8 11 10 4 8 10 10 11 10 8 7 6 7 7 8 9 11 12 14 14 15 16 17 18 19 20 20 21 22 22 23 24 24 25 26
14 13 13 14 12 10 9 8 7 5 7 10 8 9 12 14 15 13 11 10 10 10 10 11 12 13 14 15 15 16 17 18 19 20 20 20 21 22 23 24 25 26 27 28
13 14 11 13 12 9 11 8 8 8 7 10 13 10 12 16 18 17 14 13 12 12 13 13 14 15 15 15 15 16 17 19 20 20 21 21 22 22 23 24 26 27 28 29
15 14 13 15 15 12 10 10 10 10 9 8 10 14 15 16 18 19 18 16 15 15 15 15 15 16 16 16 16 17 18 19 19 20 21 22 22 23 24 26 27 28 29 30
16 15 14 15 18 15 9 7 7 10 10 10 11 16 19 17 18 18 17 17 17 16 17 18 17 16 16 16 17 17 18 19 20 20 21 22 22 24 25 27 28 29 30 31
16 16 15 16 15 12 7 4 7 11 12 13 14 15 17 18 19 19 17 18 18 17 18 18 17 17 16 17 17 18 19 20 20 21 22 23 23 25 26 28 29 30 32 33
16 16 15 15 13 12 11 10 11 14 15 15 16 15 17 19 20 21 20 20 20 19 18 18 17 17 17 17 18 19 20 21 21 22 23 24 25 26 27 29 30 32 33 35
17 16 16 15 13 15 14 13 14 15 15 15 15 16 19 22 21 21 21 21 21 20 19 18 18 18 18 18 19 20 21 22 23 24 25 26 26 28 29 30 32 34 35 37
18 18 17 15 14 16 15 14 15 16 16 15 15 17 20 22 22 21 20 20 21 20 19 19 19 19 19 20 21 22 23 24 25 25 27 28 29 30 31 33 34 36 38 39
19 18 18 17 16 16 13 14 15 15 15 16 17 19 20 21 21 21 20 20 20 20 20 20 20 20 21 21 22 23 24 25 26 27 29 30 31 32 33 35 36 38 39 41
20 19 18 17 17 15 15 18 18 16 16 16 16 18 19 20 21 22 21 20 20 20 21 21 22 22 22 23 24 25 26 27 28 30 31 33 34 35 36 37 39 40 41 42
20 19 18 18 17 17 21 22 21 20 20 17 17 19 20 19 21 23 23 22 22 22 22 23 23 24 24 25 26 27 28 29 30 32 34 36 37 38 38 39 40 41 43 44
22 19 19 18 18 19 24 24 22 21 23 18 17 19 19 21 23 25 24 25 25 24 24 25 25 26 26 27 28 29 30 32 33 35 37 38 40 41 40 41 42 43 44 45
20 19 22 22 23 24 27 27 27 25 22 18 20 22 23 26 26 27 28 28 27 26 26 27 27 27 28 29 31 32 33 35 36 38 39 41 42 44 43 44 44 45 46 47
22 21 22 27 28 28 30 28 26 23 22 23 25 25 27 28 28 30 30 30 30 29 29 29 30 30 31 32 33 35 37 38 39 40 42 43 44 45 46 47 47 47 48 49
27 25 25 29 31 30 28 28 28 28 28 29 29 30 30 31 31 32 32 32 33 32 32 32 33 34 34 35 37 38 39 40 41 43 44 45 46 46 47 48 49 49 51 51
29 30 30 32 33 32 30 30 31 31 30 31 31 32 33 33 33 33 34 34 35 35 35 36 37 38 39 39 40 42 43 44 44 46 47 47 48 48 49 49 50 52 51 49
32 32 32 33 33 34 34 32 32 33 32 32 33 33 34 34 35 35 35 36 37 38 38 39 40 41 42 42 43 44 45 46 47 48 49 49 50 51 51 52 52 52 51 50
Wind_Direction
13 351 351 341 325 317 308 300 306 313 323 328 316 318 323 309 285 272 261 254 255 261 265 267 271 278 283 288 294 292 295 302 304 306 308 308 307 308 309 309 308 306 305 302
349 330 331 322 322 322 307 303 310 318 328 328 326 328 340 331 311 284 271 260 254 255 256 264 268 275 283 288 289 290 294 299 303 309 311 310 312 313 314 313 312 310 308 306
317 312 309 312 312 310 313 312 316 319 328 331 334 343 340 340 334 302 276 259 259 251 258 255 262 273 280 289 293 294 305 310 313 316 317 318 319 320 319 318 316 314 313 311
289 287 300 307 308 313 311 318 320 317 315 319 344 350 350 357 5 358 311 274 261 256 255 252 263 272 285 292 298 306 313 318 321 323 323 324 324 324 323 321 319 318 317 315
288 296 304 306 305 312 317 319 317 298 291 309 340 349 356 1 9 21 8 353 266 252 262 272 283 294 310 313 315 318 320 324 327 328 329 328 327 325 324 322 321 320 319 318
275 277 293 296 303 317 318 318 314 303 291 316 355 352 354 1 6 4 353 355 329 294 292 293 310 317 324 326 326 327 328 330 332 331 330 328 327 326 326 324 323 322 321 319
300 284 267 295 310 313 322 323 323 340 356 2 1 350 352 0 7 7 352 343 330 310 305 306 318 324 328 329 331 333 334 333 333 332 330 329 328 327 326 325 324 323 321 319
288 289 287 295 306 303 313 320 324 335 336 332 344 337 343 349 354 349 340 333 322 317 319 320 325 329 330 332 334 335 335 333 332 332 330 330 328 327 326 325 324 323 321 320
281 298 309 307 303 296 292 284 300 311 315 309 313 323 325 340 341 336 330 326 322 320 322 325 329 331 332 333 334 334 333 332 332 331 331 330 329 328 327 326 325 323 321 320
274 279 289 295 306 303 293 285 279 280 315 321 308 295 307 332 334 331 324 318 318 318 320 324 328 330 330 330 330 330 330 330 329 329 329 329 328 327 326 326 324 322 321 321
275 269 269 269 274 282 292 298 285 270 256 282 305 313 316 320 323 324 321 319 317 318 319 321 324 324 324 325 326 326 327 328 328 328 327 327 326 326 325 324 323 322 322 322
274 268 259 262 258 235 251 268 276 281 274 277 293 296 290 304 312 317 319 317 317 317 316 317 319 319 318 320 321 323 324 324 325 325 324 324 324 324 324 324 324 324 323 323
274 271 267 265 266 257 239 233 258 274 277 275 273 281 288 301 304 307 309 310 310 311 311 311 312 313 313 314 317 319 320 321 322 322 322 321 321 322 323 324 324 324 324 324
271 272 268 269 293 310 312 271 266 272 275 271 267 272 282 289 295 300 302 302 302 303 303 304 306 307 308 310 313 315 318 319 320 320 321 320 320 322 323 324 324 325 325 325
261 267 269 266 271 285 287 284 279 275 275 272 275 281 280 282 287 294 297 298 298 299 299 300 301 303 304 307 309 312 315 316 317 318 319 319 319 321 323 324 324 324 325 325
263 269 267 266 260 264 266 268 271 275 276 275 273 270 270 275 284 289 293 295 295 296 297 298 299 301 302 304 307 310 313 313 314 315 317 318 319 320 320 321 322 323 323 324
277 281 279 271 257 255 260 261 264 271 269 265 266 266 270 276 282 287 290 290 292 293 295 297 299 300 302 304 306 308 311 312 313 313 315 316 317 318 318 319 321 322 323 323
278 283 283 280 262 258 262 257 259 266 271 271 266 267 272 278 286 288 288 289 291 293 296 298 299 300 302 303 305 307 310 311 312 312 313 314 315 316 316 317 320 322 323 323
270 275 279 278 268 262 256 252 249 242 249 258 263 269 275 283 290 291 289 292 294 296 297 298 298 300 302 303 304 306 308 309 310 311 312 312 313 313 314 316 319 321 323 323
263 271 278 280 272 262 260 256 255 251 248 247 256 268 270 282 290 291 294 296 297 297 297 297 297 298 300 301 303 304 306 308 309 310 312 312 311 311 313 315 317 319 322 324
260 268 279 280 271 262 260 263 261 255 252 247 253 265 271 282 287 290 293 294 296 296 296 296 296 297 298 300 301 303 304 306 308 310 311 313 312 311 311 313 315 318 320 323
267 269 274 274 269 258 259 258 257 259 252 255 263 269 275 280 284 287 290 292 293 293 293 294 295 296 297 298 300 302 303 305 307 310 311 312 313 313 312 313 315 317 319 321
266 264 267 270 271 270 265 264 263 266 269 274 274 277 279 281 282 285 287 289 290 291 292 293 294 295 297 298 299 301 302 302 305 307 309 310 313 314 314 315 315 317 319 319
262 260 263 270 274 274 274 277 279 277 279 279 277 276 277 279 280 282 285 287 289 290 291 292 293 294 295 297 298 299 300 301 302 304 307 308 310 312 313 315 315 315 317 317
265 266 265 268 272 276 278 281 283 282 279 277 275 275 276 278 280 282 283 285 286 287 288 290 291 292 293 294 296 298 299 300 300 303 305 307 309 309 311 313 314 314 315 315
262 265 268 271 272 274 276 279 278 278 277 276 276 276 277 279 280 281 282 283 284 286 287 289 290 291 292 293 294 296 297 299 300 302 304 305 307 308 309 310 312 313 314 314
Height
5883 5883 5882 5882 5881 5880 5878 5874 5871 5869 5868 5866 5862 5858 5854 5851 5852 5854 5855 5856 5858 5859 5862 5863 5865 5866 5866 5867 5867 5867 5866 5865 5864 5863 5862 5860 5859 5858 5856 5855 5853 5851 5850 5848
5884 5883 5882 5881 5880 5878 5876 5874 5871 5869 5866 5865 5862 5860 5855 5853 5852 5852 5852 5853 5855 5857 5859 5861 5863 5864 5864 5865 5864 5864 5863 5862 5862 5860 5859 5857 5856 5855 5853 5851 5850 5848 5846 5844
5885 5885 5882 5881 5879 5877 5875 5873 5872 5869 5867 5864 5862 5860 5857 5855 5853 5852 5851 5853 5854 5855 5857 5859 5861 5862 5863 5862 5862 5862 5861 5860 5859 5857 5856 5855 5853 5851 5850 5848 5846 5844 5842 5840
5884 5883 5881 5879 5878 5876 5874 5872 5870 5868 5866 5864 5862 5859 5858 5855 5853 5852 5852 5853 5855 5856 5857 5859 5860 5861 5861 5860 5860 5860 5859 5858 5856 5855 5853 5852 5850 5848 5846 5844 5842 5841 5838 5836
5882 5881 5880 5878 5876 5875 5873 5871 5869 5867 5864 5862 5860 5859 5859 5856 5854 5854 5854 5854 5855 5856 5857 5858 5859 5859 5859 5859 5858 5858 5857 5855 5854 5852 5850 5849 5847 5845 5843 5841 5839 5837 5835 5833
5879 5878 5877 5877 5875 5873 5872 5870 5868 5863 5860 5859 5859 5860 5858 5856 5855 5855 5855 5856 5857 5857 5857 5858 5858 5858 5857 5857 5856 5856 5854 5853 5851 5849 5848 5846 5844 5842 5840 5837 5835 5833 5831 5829
5875 5873 5872 5873 5873 5872 5871 5870 5867 5862 5859 5859 5861 5861 5860 5858 5857 5856 5856 5856 5857 5856 5857 5857 5857 5856 5856 5855 5854 5853 5852 5850 5848 5847 5845 5843 5841 5839 5837 5834 5832 5829 5827 5825
5874 5870 5868 5869 5871 5871 5870 5869 5868 5866 5864 5862 5861 5860 5861 5859 5859 5858 5858 5857 5856 5855 5856 5856 5855 5854 5854 5852 5851 5850 5849 5847 5846 5844 5842 5840 5838 5836 5834 5831 5829 5826 5823 5821
5872 5870 5868 5868 5869 5869 5868 5868 5868 5867 5864 5860 5858 5860 5859 5859 5859 5858 5857 5856 5856 5855 5854 5854 5853 5852 5851 5850 5848 5847 5846 5844 5843 5841 5839 5837 5835 5832 5830 5828 5825 5822 5819 5816
5871 5870 5869 5868 5867 5867 5867 5866 5866 5865 5864 5862 5860 5858 5857 5858 5857 5857 5856 5855 5854 5853 5852 5851 5850 5849 5848 5847 5846 5845 5844 5842 5840 5838 5836 5834 5832 5830 5827 5824 5821 5818 5815 5811
5868 5868 5868 5867 5865 5865 5865 5865 5864 5864 5863 5862 5859 5857 5856 5856 5856 5855 5854 5853 5852 5851 5850 5849 5848 5847 5846 5845 5844 5843 5841 5839 5837 5835 5833 5831 5829 5827 5824 5821 5818 5814 5810 5806
5864 5864 5864 5863 5859 5858 5861 5862 5862 5862 5861 5861 5860 5860 5855 5854 5854 5853 5852 5851 5850 5849 5848 5847 5846 5845 5844 5843 5841 5840 5838 5837 5835 5833 5831 5828 5826 5823 5820 5817 5813 5809 5805 5801
5861 5861 5860 5860 5858 5855 5855 5858 5859 5860 5860 5859 5859 5859 5854 5853 5852 5851 5850 5849 5848 5847 5846 5845 5844 5843 5841 5840 5839 5837 5836 5834 5832 5830 5827 5825 5822 5819 5816 5812 5808 5804 5800 5795
5857 5856 5857 5856 5854 5852 5852 5854 5855 5857 5857 5857 5856 5854 5852 5850 5849 5849 5848 5847 5846 5845 5844 5843 5841 5840 5839 5837 5836 5834 5832 5830 5828 5826 5823 5821 5818 5814 5811 5807 5803 5799 5794 5789
5851 5852 5852 5852 5852 5851 5851 5852 5853 5853 5853 5853 5852 5850 5849 5847 5847 5846 5845 5845 5843 5842 5841 5840 5838 5837 5836 5834 5832 5831 5829 5826 5824 5822 5819 5816 5813 5809 5805 5801 5797 5793 5788 5782
5845 5846 5847 5847 5848 5848 5848 5849 5850 5850 5849 5849 5849 5848 5845 5844 5844 5843 5842 5841 5840 5838 5837 5836 5835 5833 5832 5830 5828 5827 5824 5822 5820 5817 5814 5811 5807 5804 5800 5796 5791 5786 5781 5775
5839 5841 5841 5842 5843 5843 5844 5845 5845 5845 5844 5845 5844 5844 5841 5841 5840 5839 5839 5837 5836 5834 5833 5832 5830 5829 5828 5826 5824 5822 5820 5817 5815 5812 5808 5805 5801 5797 5793 5789 5784 5779 5774 5768
5836 5836 5836 5837 5838 5838 5841 5840 5840 5840 5840 5840 5839 5838 5837 5836 5835 5834 5834 5832 5831 5830 5828 5827 5826 5824 5823 5821 5819 5817 5814 5812 5809 5806 5802 5799 5795 5791 5786 5782 5777 5771 5766 5760
5831 5831 5832 5832 5832 5833 5835 5833 5833 5833 5834 5834 5834 5833 5832 5831 5830 5828 5827 5827 5826 5825 5824 5822 5820 5819 5818 5816 5813 5811 5808 5806 5803 5799 5796 5792 5788 5784 5779 5774 5769 5763 5757 5751
5825 5826 5827 5827 5827 5828 5828 5826 5826 5828 5827 5827 5827 5827 5827 5826 5825 5823 5821 5821 5820 5819 5818 5817 5815 5813 5811 5809 5807 5804 5802 5799 5796 5792 5789 5784 5780 5775 5771 5766 5760 5754 5748 5742
5818 5818 5821 5822 5822 5822 5820 5820 5820 5821 5820 5819 5819 5820 5820 5820 5820 5818 5815 5815 5814 5813 5812 5810 5809 5807 5805 5802 5800 5797 5794 5791 5788 5784 5780 5776 5771 5766 5762 5757 5751 5745 5739 5733
5812 5813 5814 5814 5815 5816 5812 5813 5813 5812 5811 5810 5812 5813 5814 5814 5813 5811 5810 5809 5808 5807 5805 5804 5802 5800 5798 5795 5792 5790 5786 5783 5779 5775 5771 5767 5762 5757 5752 5747 5741 5736 5730 5724
5808 5809 5809 5808 5808 5807 5805 5803 5803 5803 5804 5805 5807 5807 5807 5807 5806 5805 5803 5802 5800 5799 5797 5796 5794 5792 5789 5787 5784 5781 5778 5774 5770 5766 5762 5757 5752 5747 5742 5736 5731 5726 5720 5714
5803 5802 5803 5801 5799 5797 5797 5797 5798 5800 5801 5800 5800 5801 5801 5800 5799 5797 5795 5794 5792 5790 5788 5787 5785 5783 5780 5778 5775 5771 5768 5764 5760 5756 5752 5747 5742 5737 5732 5727 5721 5715 5710 5703
5796 5796 5797 5795 5794 5791 5791 5792 5792 5793 5793 5793 5793 5793 5792 5791 5790 5789 5787 5786 5784 5782 5779 5777 5775 5773 5770 5768 5765 5761 5758 5754 5750 5746 5741 5736 5732 5727 5722 5717 5711 5705 5700 5693
5790 5791 5791 5789 5789 5787 5785 5785 5785 5785 5785 5785 5785 5784 5783 5782 5781 5779 5778 5776 5774 5772 5770 5768 5765 5762 5759 5757 5754 5751 5747 5743 5739 5734 5730 5725 5720 5715 5710 5705 5700 5694 5688 5683